Theta_e
293 294 294 293 293 293 293 293 293 294 295 296 298 299 299 302 303 305 307 308 309 306
290 290 290 290 291 290 291 291 291 292 292 294 295 296 297 299 299 301 302 301 301 301
287 288 288 288 287 288 288 288 289 289 290 291 292 293 295 297 298 297 297 297 297 297
286 286 286 286 286 286 286 287 286 287 288 288 289 291 292 294 293 293 294 295 295 295
284 284 284 284 284 285 284 285 285 286 286 287 288 290 288 289 289 289 289 291 291 291
283 282 282 282 283 283 283 284 284 285 285 285 287 287 288 288 288 288 288 289 289 289
281 281 281 281 282 282 282 282 283 284 284 285 286 285 285 285 286 286 287 289 289 289
280 280 280 280 280 281 281 282 282 283 283 284 284 283 283 283 283 284 285 286 286 287
278 278 278 279 279 280 280 281 282 282 281 281 282 283 283 283 282 283 283 283 284 285
277 277 277 278 278 278 279 280 280 280 279 279 280 282 283 282 282 281 281 281 281 282
275 275 276 277 277 277 279 279 278 278 278 278 278 281 282 281 280 280 280 280 280 279
274 274 275 275 275 276 277 277 277 277 276 276 277 279 281 280 279 277 277 278 278 278
273 274 273 274 274 275 276 276 277 276 276 276 276 278 280 279 277 275 276 276 276 277
272 273 273 273 274 275 275 275 275 276 276 276 276 276 278 278 276 275 273 274 273 274
Wind_Speed
11 7 7 9 7 7 7 8 12 11 11 12 12 12 11 7 8 10 9 12 11 9
9 10 8 9 8 7 8 8 11 11 11 12 12 12 12 8 9 9 9 10 10 10
9 9 8 8 9 10 9 10 10 11 11 12 12 12 12 9 9 11 9 9 12 11
8 8 8 8 8 9 9 10 11 12 12 12 12 12 11 12 12 13 12 12 12 13
8 8 9 9 9 9 9 9 10 11 11 11 12 12 13 13 13 14 13 13 14 14
8 8 9 9 9 10 10 10 10 10 11 11 11 12 13 13 13 13 12 13 14 14
7 8 9 9 9 9 9 9 10 10 11 11 10 14 15 15 14 13 12 12 12 13
6 7 8 8 9 8 9 9 10 10 11 12 10 12 16 15 15 13 13 12 13 12
5 8 9 8 8 9 9 9 9 10 11 11 9 21 23 20 13 13 12 13 13 14
6 8 7 7 8 9 9 9 10 11 12 12 12 23 25 26 11 12 13 14 14 13
7 7 7 7 8 9 8 9 9 10 12 11 10 21 24 25 13 12 14 14 14 15
7 7 7 8 8 8 8 8 9 9 10 11 11 20 24 20 12 12 14 14 14 14
7 6 8 8 8 7 7 8 7 9 9 10 10 18 23 21 10 13 12 12 14 19
6 6 7 6 6 7 6 6 6 7 7 7 9 12 22 24 11 11 11 10 11 11
Wind_Direction
33 38 38 33 23 22 12 8 1 359 358 356 354 352 353 343 347 352 337 339 346 345
34 35 32 30 24 20 15 6 2 358 357 356 358 354 351 357 350 351 343 348 339 337
32 32 27 33 28 20 15 9 4 3 2 1 1 1 355 357 351 354 353 349 341 342
30 31 33 34 27 22 13 14 10 6 4 5 1 3 3 360 3 350 347 346 342 338
29 30 31 29 21 20 18 16 14 10 9 10 6 7 10 0 357 351 347 342 340 337
32 31 30 24 18 18 15 18 16 21 13 12 7 14 2 358 353 347 342 339 335 332
28 33 28 21 14 16 19 19 21 18 13 9 11 17 1 357 349 342 339 337 336 333
25 41 35 26 17 12 18 17 16 18 12 11 27 11 1 355 345 336 337 337 337 332
44 52 31 24 18 10 17 16 15 17 17 12 20 5 1 358 339 344 342 339 338 334
48 54 42 25 27 18 7 18 12 19 18 13 17 5 2 357 351 349 349 343 340 341
53 49 42 39 30 23 5 18 16 15 16 9 8 1 0 359 354 352 346 344 344 349
52 47 41 40 29 19 8 15 13 13 13 6 3 358 2 2 356 354 348 347 350 345
40 42 42 34 28 10 9 16 4 11 9 4 358 355 3 3 358 351 348 343 347 348
36 45 41 32 26 21 2 16 358 12 356 7 0 356 3 1 1 353 347 343 344 346